DW9004 Weather Reports


time (UTC)temp
C
wind
direction
speed
KPH
gust
KPH
rain 1hr
cm
rain 24hr
cm
rain mn
cm
humidity
%
barometer
mb
20260507144535 13 304 0.0 3.2 0.00 0.00 0.00 73 1011.3
20260507143038 11 325 0.0 1.6 0.00 0.00 0.00 77 1011.3
20260507141533 11 211 0.0 3.2 0.00 0.00 0.00 78 1011.2
20260507140034 10 207 0.0 0.0 0.00 0.00 0.00 78 1011.1
20260507134533 10 211 0.0 1.6 0.00 0.00 0.00 78 1011.1
20260507133014 8 219 0.0 0.0 0.00 0.00 0.00 77 1011.0
20260507131520 9 218 0.0 0.0 0.00 0.00 0.00 76 1010.7
20260507130059 9 218 0.0 3.2 0.00 0.00 0.00 74 1010.6
20260507124558 9 349 0.0 0.0 0.00 0.00 0.00 75 1010.6
20260507123058 9 284 0.0 3.2 0.00 0.00 0.00 76 1010.5
20260507121555 8 350 1.6 4.8 0.00 0.00 0.00 78 1010.3
20260507114551 9 230 0.0 1.6 0.00 0.00 0.00 74 1010.1
20260507113052 9 351 0.0 1.6 0.00 0.00 0.00 75 1010.4
20260507111548 9 347 0.0 3.2 0.00 0.00 0.00 73 1010.2
20260507110036 10 232 0.0 1.6 0.00 0.00 0.00 71 1010.1
20260507104529 10 339 0.0 0.0 0.00 0.00 0.00 70 1010.1
20260507103027 10 339 0.0 1.6 0.00 0.00 0.00 70 1010.0
20260507101526 10 352 0.0 3.2 0.00 0.00 0.00 69 1009.8
20260507100034 10 226 0.0 0.0 0.00 0.00 0.00 69 1009.8
20260507094522 11 226 0.0 4.8 0.00 0.00 0.00 68 1009.7
20260507093021 11 326 0.0 1.6 0.00 0.00 0.00 68 1009.9
20260507091522 11 338 0.0 1.6 0.00 0.00 0.00 66 1009.7
20260507090059 11 83 0.0 0.0 0.00 0.00 0.00 67 1009.9
20260507084602 12 124 0.0 1.6 0.00 0.00 0.00 63 1010.0
20260507083042 12 332 0.0 1.6 0.00 0.00 0.00 64 1009.6
20260507081545 12 37 3.2 4.8 0.00 0.00 0.00 62 1009.5
20260507080038 13 295 0.0 0.0 0.00 0.00 0.00 59 1009.3
20260507074535 13 19 0.0 3.2 0.00 0.00 0.00 59 1009.6
20260507073031 14 302 0.0 0.0 0.00 0.00 0.00 55 1009.3
20260507071534 15 302 0.0 0.0 0.00 0.00 0.00 54 1009.4
20260507070024 16 340 0.0 0.0 0.00 0.00 0.00 49 1009.1
20260507064520 16 88 0.0 0.0 0.00 0.00 0.00 49 1008.9
20260507063005 17 105 0.0 0.0 0.00 0.00 0.00 48 1008.6
20260507060059 18 208 0.0 3.2 0.00 0.00 0.00 43 1008.5
20260507054559 18 310 0.0 3.2 0.00 0.00 0.00 43 1008.5
20260507053057 18 228 0.0 8.0 0.00 0.00 0.00 42 1008.5
20260507051556 18 353 0.0 0.0 0.00 0.00 0.00 41 1008.5
20260507050057 19 353 0.0 3.2 0.00 0.00 0.00 41 1008.4
20260507044550 20 116 0.0 3.2 0.00 0.00 0.00 39 1008.3
20260507043032 20 192 0.0 1.6 0.00 0.00 0.00 37 1008.2
20260507041534 21 228 0.0 0.0 0.00 0.00 0.00 35 1007.9
20260507040013 22 228 0.0 8.0 0.00 0.00 0.00 34 1007.7
20260507034511 21 204 6.4 14.5 0.00 0.00 0.00 34 1007.6
20260507033009 21 227 0.0 1.6 0.00 0.00 0.00 41 1007.4
20260507031505 21 312 0.0 0.0 0.00 0.00 0.00 38 1007.2
20260507030002 22 311 0.0 1.6 0.00 0.00 0.00 35 1006.8
20260507024659 23 34 0.0 6.4 0.00 0.00 0.00 34 1006.5
20260507023003 23 242 0.0 4.8 0.00 0.00 0.00 33 1006.5
20260507021608 24 313 0.0 6.4 0.00 0.00 0.00 33 1006.6
20260507020057 25 108 0.0 4.8 0.00 0.00 0.00 32 1006.6
20260507014555 25 318 0.0 9.7 0.00 0.00 0.00 31 1006.4
20260507013054 26 103 0.0 8.0 0.00 0.00 0.00 34 1006.5
20260507011545 26 325 0.0 1.6 0.00 0.00 0.00 34 1006.5
20260507010042 26 299 0.0 3.2 0.00 0.00 0.00 34 1006.2
20260507004540 27 45 0.0 22.5 0.00 0.00 0.00 39 1006.0
20260507003039 27 237 16.1 25.7 0.00 0.00 0.00 39 1005.9
20260507001600 27 227 12.9 22.5 0.00 0.00 0.00 40 1005.6
20260506234513 28 202 8.0 16.1 0.00 0.00 0.00 34 1005.6
20260506233057 28 199 9.7 20.9 0.00 0.00 0.00 35 1005.7
20260506231553 28 188 12.9 25.7 0.00 0.00 0.00 35 1005.8
20260506230049 28 232 12.9 29.0 0.00 0.00 0.00 35 1005.9
20260506224603 28 216 16.1 24.1 0.00 0.00 0.00 35 1006.0
20260506223046 27 196 11.3 19.3 0.00 0.00 0.00 33 1006.3
20260506221543 27 189 11.3 22.5 0.00 0.00 0.00 32 1006.6
20260506220051 27 334 9.7 19.3 0.00 0.00 0.00 31 1006.7
20260506214542 27 147 8.0 16.1 0.00 0.00 0.00 31 1006.8
20260506213029 27 221 14.5 25.7 0.00 0.00 0.00 30 1007.0
20260506211529 28 208 9.7 20.9 0.00 0.00 0.00 32 1007.1
20260506210028 27 241 9.7 19.3 0.00 0.00 0.00 33 1007.5
20260506204530 28 201 11.3 20.9 0.00 0.00 0.00 32 1007.5
20260506203028 27 222 9.7 20.9 0.00 0.00 0.00 34 1007.6
20260506201527 28 221 9.7 24.1 0.00 0.00 0.00 33 1007.7
20260506200027 27 223 6.4 22.5 0.00 0.00 0.00 35 1007.8
20260506194534 27 199 12.9 24.1 0.00 0.00 0.00 36 1008.0
20260506193026 26 202 11.3 24.1 0.00 0.00 0.00 36 1008.1
20260506191513 26 241 12.9 25.7 0.00 0.00 0.00 38 1008.1
20260506190012 26 242 12.9 22.5 0.00 0.00 0.00 40 1008.2
20260506184512 25 222 16.1 29.0 0.00 0.00 0.00 43 1008.1
20260506183012 25 218 12.9 27.4 0.00 0.00 0.00 43 1008.2
20260506181511 25 237 16.1 29.0 0.00 0.00 0.00 41 1008.3
20260506180011 23 218 14.5 24.1 0.00 0.00 0.00 46 1008.6
20260506174510 23 225 14.5 22.5 0.00 0.00 0.00 47 1008.4
20260506173009 23 219 9.7 20.9 0.00 0.00 0.00 49 1008.5
20260506171505 23 198 14.5 20.9 0.00 0.00 0.00 48 1008.6
20260506170004 23 223 3.2 17.7 0.00 0.00 0.00 45 1008.9
20260506164652 22 213 4.8 17.7 0.00 0.00 0.00 46 1008.9
20260506163052 23 210 4.8 14.5 0.00 0.00 0.00 44 1009.0
20260506161552 22 263 0.0 11.3 0.00 0.00 0.00 48 1009.1
20260506160107 22 225 3.2 11.3 0.00 0.00 0.00 46 1009.1
20260506154550 22 237 0.0 9.7 0.00 0.00 0.00 47 1009.1
20260506153052 22 220 1.6 9.7 0.00 0.00 0.00 48 1009.0
20260506151549 21 229 0.0 6.4 0.00 0.00 0.00 54 1009.1
20260506150051 19 186 0.0 6.4 0.00 0.00 0.00 58 1009.1